�N����,����,�~����,�C��,���x,�C��,����,���ϕ���,�ő�u�ԕ���,�ő厞����,���˗�,�I�_���x,�n�����x,�ő啗���N��,DTYPE
"22/11/06","00:10",0.0,9.3,93.3,1015.9,303.7,1.8,2.7,329.4,0.00,8.3,14.7,"00:04:48",1
"22/11/06","00:20",0.0,9.2,93.4,1015.6,312.8,2.0,2.7,327.5,0.00,8.2,14.6,"00:15:12",1
"22/11/06","00:30",0.0,9.3,93.5,1016.1,322.4,2.3,3.3,309.4,0.00,8.3,14.9,"00:22:48",1
"22/11/06","00:40",0.0,9.2,93.5,1016.1,331.3,2.5,3.4,318.9,0.00,8.2,14.8,"00:37:52",1
"22/11/06","00:50",0.0,9.3,93.6,1016.1,325.9,2.7,4.5,328.5,0.00,8.4,14.7,"00:41:20",1
"22/11/06","01:00",0.0,9.3,93.6,1015.9,328.4,2.8,4.7,337.4,0.00,8.4,14.6,"00:53:44",1
"22/11/06","01:10",0.0,9.2,93.6,1016.1,330.4,3.0,4.4,337.2,0.00,8.3,14.6,"01:09:44",1
"22/11/06","01:20",0.0,9.2,93.7,1016.1,327.1,3.0,4.2,345.8,0.00,8.3,14.6,"01:10:56",1
"22/11/06","01:30",0.0,9.3,93.5,1015.9,325.3,3.0,4.4,327.0,0.00,8.3,14.8,"01:22:48",1
"22/11/06","01:40",0.0,9.4,93.5,1016.1,327.4,3.0,4.9,335.7,0.00,8.4,14.5,"01:30:02",1
"22/11/06","01:50",0.0,9.2,93.5,1016.6,328.7,3.1,4.9,319.3,0.00,8.2,14.5,"01:49:44",1
"22/11/06","02:00",0.0,9.2,93.5,1016.6,333.2,3.4,4.8,335.6,0.00,8.2,14.5,"01:56:32",1
"22/11/06","02:10",0.0,9.1,93.6,1016.4,326.4,3.0,4.5,347.4,0.00,8.2,14.6,"02:00:32",1
"22/11/06","02:20",0.0,9.1,93.6,1016.1,326.3,3.0,4.5,333.4,0.00,8.2,14.4,"02:15:04",1
"22/11/06","02:30",0.0,9.1,93.6,1016.1,322.1,2.7,4.4,320.1,0.00,8.2,14.4,"02:27:52",1
"22/11/06","02:40",0.0,9.1,93.6,1016.4,312.7,2.6,4.1,314.9,0.00,8.2,14.2,"02:31:28",1
"22/11/06","02:50",0.0,8.8,93.6,1016.6,300.8,1.6,2.7,315.7,0.00,7.9,14.5,"02:43:52",1
"22/11/06","03:00",0.0,8.7,93.8,1016.6,319.6,1.5,2.6,315.1,0.00,7.8,14.5,"02:59:44",1
"22/11/06","03:10",0.0,8.6,93.9,1016.8,319.0,1.6,2.6,319.2,0.00,7.7,14.1,"03:08:24",1
"22/11/06","03:20",0.0,8.5,94.0,1016.8,320.2,1.7,2.8,320.8,0.00,7.6,14.3,"03:10:24",1
"22/11/06","03:30",0.0,8.6,94.1,1016.6,323.4,2.3,3.9,331.9,0.00,7.7,14.3,"03:24:40",1
"22/11/06","03:40",0.0,8.5,94.2,1016.8,320.4,2.0,3.3,333.2,0.00,7.7,14.3,"03:38:48",1
"22/11/06","03:50",0.0,8.5,94.4,1016.6,326.5,2.5,4.0,336.2,0.00,7.7,14.3,"03:42:40",1
"22/11/06","04:00",0.0,8.4,94.5,1016.1,319.8,2.0,3.2,325.5,0.00,7.6,14.3,"03:51:04",1
"22/11/06","04:10",0.0,8.4,94.6,1016.6,325.7,2.0,3.6,338.4,0.00,7.6,14.2,"04:08:08",1
"22/11/06","04:20",0.0,8.4,94.7,1016.6,323.9,2.2,3.4,335.5,0.00,7.6,14.3,"04:19:20",1
"22/11/06","04:30",0.0,8.5,94.7,1016.8,321.5,1.8,2.7,331.5,0.00,7.7,14.2,"04:22:56",1
"22/11/06","04:40",0.0,8.5,94.7,1017.1,309.6,1.6,3.6,310.5,0.00,7.7,14.2,"04:31:44",1
"22/11/06","04:50",0.0,8.2,94.7,1016.6,283.7,1.0,1.8,319.2,0.00,7.4,14.2,"04:44:08",1
"22/11/06","05:00",0.0,8.1,94.9,1017.1,314.1,1.3,2.8,326.7,0.00,7.4,14.3,"04:58:08",1
"22/11/06","05:10",0.0,8.0,95.1,1016.6,312.2,2.3,3.3,320.9,0.00,7.3,14.1,"05:06:16",1
"22/11/06","05:20",0.0,8.1,95.1,1016.8,321.4,2.0,2.8,335.0,0.00,7.4,14.2,"05:10:56",1
"22/11/06","05:30",0.0,8.1,95.2,1016.8,320.2,1.7,2.5,318.8,0.00,7.4,14.1,"05:20:02",1
"22/11/06","05:40",0.0,7.9,95.2,1017.1,296.8,1.6,2.5,322.6,0.00,7.2,13.9,"05:30:24",1
"22/11/06","05:50",0.0,7.9,95.5,1017.3,304.4,2.0,3.5,331.5,0.00,7.3,14.2,"05:49:28",1
"22/11/06","06:00",0.0,7.9,95.5,1017.3,318.6,1.7,2.8,322.5,0.00,7.3,14.0,"05:53:36",1
"22/11/06","06:10",0.0,7.9,95.6,1017.1,319.3,1.8,2.9,316.4,0.00,7.3,14.1,"06:07:28",1
"22/11/06","06:20",0.0,7.8,95.7,1017.1,316.3,2.6,3.5,306.9,0.00,7.2,13.9,"06:19:12",1
"22/11/06","06:30",0.0,7.9,95.7,1017.1,310.7,2.6,3.7,310.9,0.00,7.3,13.8,"06:24:08",1
"22/11/06","06:40",0.0,7.8,95.7,1017.3,297.9,1.1,2.7,331.9,0.00,7.2,14.0,"06:31:04",1
"22/11/06","06:50",0.0,7.2,95.8,1017.1,286.6,1.3,2.5,309.5,0.00,6.6,14.2,"06:44:00",1
"22/11/06","07:00",0.0,6.9,96.0,1017.5,297.4,1.7,2.4,310.8,0.00,6.3,14.0,"06:53:12",1
"22/11/06","07:10",0.0,6.8,96.1,1017.5,297.7,1.7,2.2,328.2,0.00,6.3,13.8,"07:02:16",1
"22/11/06","07:20",0.0,6.5,96.3,1017.5,291.8,0.8,1.6,293.9,0.00,6.0,13.8,"07:10:02",1
"22/11/06","07:30",0.0,6.7,96.6,1017.5,296.6,2.1,2.8,312.5,0.00,6.2,13.8,"07:24:08",1
"22/11/06","07:40",0.0,7.4,96.5,1017.5,276.7,1.2,2.2,298.0,0.00,6.9,13.6,"07:30:48",1
"22/11/06","07:50",0.0,7.9,96.4,1017.8,268.2,0.5,1.2,265.2,0.00,7.4,13.7,"07:49:12",1
"22/11/06","08:00",0.0,8.5,96.4,1018.2,280.9,0.8,1.2,261.1,0.01,8.0,13.6,"07:51:12",1
"22/11/06","08:10",0.0,9.4,96.4,1018.5,324.6,0.8,1.6,317.9,0.03,8.9,13.7,"08:00:40",1
"22/11/06","08:20",0.0,10.0,96.1,1018.5,246.0,0.3,1.0,285.2,0.04,9.4,13.6,"08:13:04",1
"22/11/06","08:30",0.0,10.3,95.7,1018.5,136.8,0.3,1.1,151.4,0.07,9.7,13.6,"08:28:16",1
"22/11/06","08:40",0.0,10.9,95.4,1018.7,142.1,0.3,0.9,66.7,0.11,10.2,13.8,"08:30:32",1
"22/11/06","08:50",0.0,11.4,94.8,1019.0,232.4,0.5,1.0,89.8,0.13,10.6,13.6,"08:40:16",1
"22/11/06","09:00",0.0,11.3,93.9,1019.2,261.5,1.6,3.1,233.3,0.16,10.4,13.7,"08:55:44",1
"22/11/06","09:10",0.0,12.1,93.3,1019.4,262.7,1.2,2.4,246.0,0.18,11.1,13.7,"09:02:56",1
"22/11/06","09:20",0.0,12.0,91.3,1020.1,238.0,1.3,2.6,209.2,0.21,10.7,13.6,"09:16:40",1
"22/11/06","09:30",0.0,12.7,90.0,1020.1,254.3,1.1,2.4,250.1,0.23,11.1,13.7,"09:22:32",1
"22/11/06","09:40",0.0,13.5,87.8,1019.9,235.9,0.7,1.8,236.6,0.26,11.6,13.8,"09:34:24",1
"22/11/06","09:50",0.0,13.8,85.1,1019.7,228.3,1.0,2.1,238.6,0.28,11.4,13.8,"09:43:12",1
"22/11/06","10:00",0.0,14.6,82.5,1019.9,248.8,0.6,1.7,246.8,0.30,11.7,13.7,"09:52:56",1
"22/11/06","10:10",0.0,14.8,79.2,1019.9,227.9,0.8,2.6,221.8,0.32,11.3,13.7,"10:08:56",1
"22/11/06","10:20",0.0,15.4,76.8,1019.7,203.4,0.7,1.8,120.1,0.34,11.4,13.9,"10:14:40",1
"22/11/06","10:30",0.0,15.4,74.4,1019.7,216.2,1.1,2.5,216.1,0.36,10.9,13.8,"10:25:44",1
"22/11/06","10:40",0.0,16.2,73.6,1019.2,213.3,1.0,2.6,244.3,0.38,11.5,13.9,"10:38:00",1
"22/11/06","10:50",0.0,16.3,71.5,1019.0,214.2,1.2,2.7,197.6,0.40,11.2,13.9,"10:49:04",1
"22/11/06","11:00",0.0,16.7,69.6,1018.7,159.9,0.8,1.8,159.6,0.41,11.2,14.4,"10:53:04",1
"22/11/06","11:10",0.0,17.4,67.3,1018.7,177.5,0.8,2.4,142.6,0.43,11.3,14.2,"11:08:56",1
"22/11/06","11:20",0.0,17.4,64.9,1018.2,137.1,1.0,2.6,17.8,0.42,10.8,14.2,"11:14:24",1
"22/11/06","11:30",0.0,18.0,61.2,1018.2,308.3,1.1,3.2,343.9,0.45,10.5,14.2,"11:29:52",1
"22/11/06","11:40",0.0,17.9,57.9,1017.8,347.9,2.3,5.0,328.4,0.45,9.5,14.5,"11:37:20",1
"22/11/06","11:50",0.0,18.6,53.9,1018.0,358.1,1.5,4.1,355.1,0.45,9.1,14.5,"11:45:44",1
"22/11/06","12:00",0.0,18.4,51.9,1017.5,345.3,2.6,5.4,342.5,0.46,8.4,14.5,"11:54:08",1
"22/11/06","12:10",0.0,18.9,51.8,1017.5,355.1,1.8,4.3,347.9,0.47,8.8,14.6,"12:01:20",1
"22/11/06","12:20",0.0,19.5,48.7,1017.3,359.6,1.3,5.4,345.7,0.47,8.5,14.7,"12:11:36",1
"22/11/06","12:30",0.0,19.3,48.5,1017.1,350.9,2.0,5.2,353.4,0.46,8.2,14.8,"12:24:32",1
"22/11/06","12:40",0.0,18.8,49.7,1017.3,337.5,3.0,5.9,327.2,0.46,8.1,14.8,"12:32:00",1
"22/11/06","12:50",0.0,19.4,47.6,1016.8,347.9,1.5,3.5,330.5,0.46,8.0,14.8,"12:43:12",1
"22/11/06","13:00",0.0,18.7,45.3,1017.1,341.5,2.3,7.3,348.5,0.34,6.7,14.8,"12:56:40",1
"22/11/06","13:10",0.0,19.0,47.0,1017.1,340.0,1.5,2.9,335.3,0.43,7.5,15.2,"13:03:04",1
"22/11/06","13:20",0.0,19.6,45.2,1016.6,327.2,1.1,3.5,331.3,0.42,7.5,15.0,"13:16:56",1
"22/11/06","13:30",0.0,18.7,47.8,1016.6,345.2,1.8,4.3,0.5,0.17,7.5,15.1,"13:23:44",1
"22/11/06","13:40",0.0,18.1,48.7,1016.4,340.2,2.2,5.0,339.3,0.19,7.2,15.1,"13:37:36",1
"22/11/06","13:50",0.0,17.9,50.3,1016.8,341.7,2.1,3.7,347.5,0.14,7.5,15.3,"13:40:16",1
"22/11/06","14:00",0.0,18.5,49.1,1016.6,340.0,2.2,5.4,352.8,0.29,7.7,15.3,"13:58:40",1
"22/11/06","14:10",0.0,19.3,47.7,1016.6,335.1,2.2,4.7,340.4,0.36,8.0,15.3,"14:04:16",1
"22/11/06","14:20",0.0,19.1,45.3,1016.4,339.2,2.6,4.5,359.4,0.29,7.0,15.1,"14:12:48",1
"22/11/06","14:30",0.0,19.0,46.0,1015.9,355.0,1.6,3.6,342.8,0.23,7.2,15.1,"14:24:00",1
"22/11/06","14:40",0.0,19.7,45.2,1016.4,337.4,1.7,3.6,321.0,0.33,7.6,15.5,"14:30:02",1
"22/11/06","14:50",0.0,18.8,47.3,1016.4,340.2,2.3,4.9,352.9,0.20,7.4,15.4,"14:46:24",1
"22/11/06","15:00",0.0,18.8,48.2,1016.1,344.5,2.2,5.4,341.5,0.22,7.7,15.4,"14:51:28",1
"22/11/06","15:10",0.0,18.2,49.4,1016.6,334.3,1.7,3.9,325.8,0.11,7.5,15.4,"15:06:24",1
"22/11/06","15:20",0.0,18.0,50.7,1016.8,341.6,1.8,3.5,322.1,0.12,7.7,15.5,"15:10:48",1
"22/11/06","15:30",0.0,18.2,49.1,1016.4,336.4,2.1,3.9,354.2,0.13,7.4,15.6,"15:22:48",1
"22/11/06","15:40",0.0,17.4,50.5,1016.6,341.1,1.7,3.7,357.5,0.04,7.1,15.4,"15:36:08",1
"22/11/06","15:50",0.0,17.2,50.0,1016.4,353.2,1.8,4.2,13.1,0.04,6.7,15.7,"15:46:40",1
"22/11/06","16:00",0.0,18.0,49.4,1016.8,339.9,2.3,5.0,327.4,0.13,7.3,15.5,"15:55:20",1
"22/11/06","16:10",0.0,18.3,47.4,1016.8,338.9,2.3,4.4,345.4,0.11,7.0,15.6,"16:09:12",1
"22/11/06","16:20",0.0,18.1,48.0,1017.1,335.4,2.5,4.7,332.9,0.08,7.0,15.7,"16:18:32",1
"22/11/06","16:30",0.0,17.8,49.3,1016.8,335.9,2.5,5.1,340.3,0.05,7.1,15.6,"16:28:48",1
"22/11/06","16:40",0.0,17.1,50.0,1016.8,334.4,2.2,4.3,336.8,0.02,6.6,15.7,"16:31:12",1
"22/11/06","16:50",0.0,16.3,52.3,1016.8,342.1,2.2,4.2,335.6,0.00,6.6,15.7,"16:41:12",1
"22/11/06","17:00",0.0,16.3,54.0,1017.1,335.4,2.0,3.5,340.7,0.01,7.0,15.5,"16:53:36",1
"22/11/06","17:10",0.0,15.6,56.4,1016.6,333.5,1.8,3.4,334.4,0.00,7.0,15.6,"17:06:00",1
"22/11/06","17:20",0.0,14.9,58.9,1016.8,333.6,1.8,3.4,348.6,0.00,7.0,15.6,"17:13:34",1
"22/11/06","17:30",0.0,14.3,61.7,1017.1,331.1,2.0,3.2,344.6,0.00,7.1,15.4,"17:22:00",1
"22/11/06","17:40",0.0,13.7,64.5,1017.1,330.4,2.0,3.3,347.8,0.00,7.2,15.6,"17:34:20",1
"22/11/06","17:50",0.0,13.2,66.6,1016.8,326.2,2.0,3.2,334.3,0.00,7.2,15.5,"17:45:58",1
"22/11/06","18:00",0.0,12.9,68.2,1017.1,331.1,1.7,2.4,319.0,0.00,7.2,15.4,"17:52:48",1
"22/11/06","18:10",0.0,12.6,69.6,1017.3,317.1,2.5,2.5,317.7,0.00,7.2,15.7,"18:06:16",1
"22/11/06","18:20",0.0,12.2,70.8,1017.3,317.6,2.5,2.5,317.7,0.00,7.1,15.4,"18:16:12",1
"22/11/06","18:30",0.0,11.8,71.7,1017.5,318.4,1.2,1.2,318.4,0.00,6.9,15.4,"18:28:22",1
"22/11/06","18:40",0.0,11.4,72.5,1017.5,312.5,2.0,2.2,320.6,0.00,6.7,15.5,"18:34:24",1
"22/11/06","18:50",0.0,11.0,73.6,1017.5,302.7,1.5,1.9,295.0,0.00,6.5,15.3,"18:49:48",1
"22/11/06","19:00",0.0,10.9,74.8,1017.8,287.7,1.6,2.1,315.2,0.00,6.6,15.1,"18:50:10",1
"22/11/06","19:10",0.0,10.9,76.0,1017.5,291.6,1.7,2.6,304.2,0.00,6.9,15.2,"19:08:10",1
"22/11/06","19:20",0.0,10.7,76.7,1017.8,320.1,1.6,2.2,341.0,0.00,6.8,15.3,"19:18:12",1
"22/11/06","19:30",0.0,10.6,77.7,1018.0,309.7,1.7,3.1,327.9,0.00,6.9,15.2,"19:29:54",1
"22/11/06","19:40",0.0,10.4,78.9,1017.8,304.9,1.7,2.2,329.8,0.00,6.9,15.2,"19:30:16",1
"22/11/06","19:50",0.0,10.1,80.2,1017.8,307.2,1.7,2.5,318.7,0.00,6.9,15.1,"19:47:04",1
"22/11/06","20:00",0.0,10.0,81.2,1018.0,344.9,1.3,2.2,332.4,0.00,7.0,14.9,"19:59:48",1
"22/11/06","20:10",0.0,9.7,82.1,1017.8,318.0,1.6,2.2,307.5,0.00,6.8,14.9,"20:03:12",1
"22/11/06","20:20",0.0,9.4,83.2,1018.0,299.8,1.6,2.2,324.8,0.00,6.7,15.0,"20:17:44",1
"22/11/06","20:30",0.0,9.3,84.0,1018.0,305.2,1.6,2.8,309.2,0.00,6.8,15.1,"20:25:44",1
"22/11/06","20:40",0.0,9.3,84.7,1018.0,291.9,1.7,3.7,325.0,0.00,6.9,15.0,"20:31:44",1
"22/11/06","20:50",0.0,9.2,85.2,1017.5,291.5,1.6,2.5,292.3,0.00,6.9,14.8,"20:49:04",1
"22/11/06","21:00",0.0,9.2,85.5,1017.8,314.7,1.8,2.7,336.4,0.00,6.9,14.9,"20:58:16",1
"22/11/06","21:10",0.0,9.3,85.6,1018.0,330.3,1.8,3.2,333.0,0.00,7.1,14.9,"21:04:08",1
"22/11/06","21:20",0.0,9.3,85.5,1018.0,295.1,1.7,3.4,315.5,0.00,7.0,14.8,"21:11:52",1
"22/11/06","21:30",0.0,9.2,85.6,1017.8,307.3,1.6,2.4,322.8,0.00,7.0,14.6,"21:26:08",1
"22/11/06","21:40",0.0,9.1,85.8,1017.8,314.4,2.0,3.1,324.3,0.00,6.9,14.7,"21:34:56",1
"22/11/06","21:50",0.0,8.7,86.1,1018.0,282.4,0.8,2.0,323.9,0.00,6.5,14.8,"21:40:24",1
"22/11/06","22:00",0.0,8.3,86.8,1018.2,282.7,1.7,2.6,328.5,0.00,6.3,14.7,"21:59:28",1
"22/11/06","22:10",0.0,8.2,87.4,1018.2,302.2,2.1,2.9,323.3,0.00,6.3,14.6,"22:04:32",1
"22/11/06","22:20",0.0,8.3,88.0,1018.2,292.6,2.0,2.7,309.1,0.00,6.5,14.6,"22:16:08",1
"22/11/06","22:30",0.0,8.3,88.3,1018.2,292.5,1.7,3.2,308.5,0.00,6.5,14.6,"22:23:20",1
"22/11/06","22:40",0.0,8.1,88.7,1018.2,295.8,1.8,2.7,318.8,0.00,6.4,14.6,"22:36:32",1
"22/11/06","22:50",0.0,8.1,89.1,1018.0,313.0,2.2,2.8,308.1,0.00,6.5,14.5,"22:49:36",1
"22/11/06","23:00",0.0,8.5,89.2,1018.0,310.0,2.5,4.3,316.6,0.00,6.9,14.4,"22:50:16",1
"22/11/06","23:10",0.0,8.7,88.9,1018.0,320.5,2.8,4.3,335.4,0.00,7.0,14.4,"23:04:08",1
"22/11/06","23:20",0.0,9.0,88.3,1017.8,320.3,2.8,4.2,338.3,0.00,7.2,14.2,"23:15:36",1
"22/11/06","23:30",0.0,9.0,87.6,1018.2,327.6,2.7,4.2,331.8,0.00,7.1,14.1,"23:22:56",1
"22/11/06","23:40",0.0,8.9,87.1,1018.2,332.3,2.3,3.6,335.2,0.00,6.9,14.3,"23:34:40",1
"22/11/06","23:50",0.0,8.8,86.6,1018.2,326.6,2.5,4.4,331.0,0.00,6.7,14.2,"23:45:28",1
"22/11/06","24:00",0.0,8.8,86.3,1018.5,329.9,2.3,4.1,313.5,0.00,6.7,14.4,"23:53:12",1
